SHT6Q EGLL-EGPF

Flight info

Callsign SHT6Q
Flight time 0h 57m
Altitude 32000
Route UMLAT T418 WELIN T420 TNT UN57 POL UN601 RIBEL DCT ASLIB
Aircraft A20N/M-SDE2E3FGHIRWXY/LB1

Departure

Time 2026-05-05 08:25
Airport London Heathrow Airport (EGLL)

Arrival

Time 2026-05-05 09:23
Airport Glasgow Airport (EGPF)
Time Latitude Longitude Altitude Speed Heading
2026-05-05 08:13 51.47410 -0.43891 93 ft 0 kts 90°
2026-05-05 08:16 51.47410 -0.43901 93 ft 2 kts 90°
2026-05-05 08:16 51.47410 -0.43927 93 ft 2 kts 90°
2026-05-05 08:16 51.47410 -0.43945 93 ft 2 kts 90°
2026-05-05 08:16 51.47410 -0.43971 93 ft 2 kts 90°
2026-05-05 08:17 51.47410 -0.43997 93 ft 2 kts 90°
2026-05-05 08:17 51.47408 -0.44023 93 ft 2 kts 73°
2026-05-05 08:17 51.47398 -0.44054 94 ft 4 kts 25°
2026-05-05 08:17 51.47380 -0.44062 94 ft 0 kts 359°
2026-05-05 08:19 51.47411 -0.44062 94 ft 13 kts
2026-05-05 08:19 51.47510 -0.44062 91 ft 15 kts
2026-05-05 08:19 51.47582 -0.44031 93 ft 6 kts 56°
2026-05-05 08:20 51.47591 -0.43949 90 ft 14 kts 88°
2026-05-05 08:20 51.47625 -0.43773 93 ft 14 kts 19°
2026-05-05 08:20 51.47674 -0.43797 92 ft 7 kts 331°
2026-05-05 08:20 51.47720 -0.43841 91 ft 5 kts 328°
2026-05-05 08:21 51.47729 -0.43849 91 ft 0 kts 328°
2026-05-05 08:21 51.47730 -0.43851 91 ft 0 kts 328°
2026-05-05 08:21 51.47727 -0.43848 92 ft 2 kts 328°
2026-05-05 08:22 51.47701 -0.43822 92 ft 7 kts 328°
2026-05-05 08:22 51.47656 -0.43779 91 ft 7 kts 330°
2026-05-05 08:22 51.47630 -0.43755 92 ft 0 kts 330°
2026-05-05 08:23 51.47644 -0.43768 93 ft 8 kts 330°
2026-05-05 08:24 51.47706 -0.43828 91 ft 13 kts 328°
2026-05-05 08:24 51.47765 -0.43934 89 ft 11 kts 276°
2026-05-05 08:24 51.47766 -0.43965 88 ft 3 kts 270°
2026-05-05 08:24 51.47766 -0.44022 89 ft 11 kts 270°
2026-05-05 08:25 51.47766 -0.44464 91 ft 75 kts 270°
2026-05-05 08:25 51.47760 -0.45706 88 ft 147 kts 270°
2026-05-05 08:25 51.47752 -0.47579 328 ft 180 kts 271°
2026-05-05 08:25 51.47706 -0.49604 1161 ft 179 kts 269°
2026-05-05 08:26 51.47637 -0.51570 2116 ft 180 kts 271°
2026-05-05 08:26 51.47661 -0.53748 2617 ft 210 kts 282°
2026-05-05 08:26 51.48161 -0.56149 3003 ft 243 kts 298°
2026-05-05 08:26 51.48951 -0.58652 3866 ft 257 kts 300°
2026-05-05 08:27 51.49783 -0.61183 4885 ft 263 kts 300°
2026-05-05 08:27 51.50639 -0.63805 5745 ft 267 kts 300°
2026-05-05 08:27 51.51664 -0.66287 6822 ft 268 kts 314°
2026-05-05 08:27 51.53183 -0.67992 7860 ft 269 kts 339°
2026-05-05 08:28 51.55033 -0.68447 8880 ft 273 kts 360°
2026-05-05 08:28 51.56957 -0.68485 9873 ft 279 kts 357°
2026-05-05 08:28 51.58950 -0.68612 10561 ft 297 kts 356°
2026-05-05 08:28 51.61094 -0.68798 11080 ft 317 kts 356°
2026-05-05 08:29 51.63331 -0.69022 11890 ft 326 kts 356°
2026-05-05 08:29 51.65617 -0.69262 12823 ft 332 kts 356°
2026-05-05 08:29 51.67910 -0.69509 13775 ft 337 kts 356°
2026-05-05 08:30 51.72674 -0.70033 15429 ft 350 kts 356°
2026-05-05 08:30 51.75127 -0.70306 16228 ft 357 kts 356°
2026-05-05 08:30 51.77626 -0.70586 17038 ft 363 kts 356°
2026-05-05 08:30 51.80162 -0.70871 17808 ft 369 kts 355°
2026-05-05 08:31 51.82753 -0.71163 18541 ft 375 kts 355°
2026-05-05 08:31 51.85378 -0.71459 19255 ft 379 kts 355°
2026-05-05 08:31 51.88023 -0.71757 19966 ft 383 kts 355°
2026-05-05 08:31 51.90692 -0.72059 20694 ft 387 kts 355°
2026-05-05 08:32 51.93367 -0.72360 21413 ft 391 kts 355°
2026-05-05 08:32 51.96091 -0.72668 22092 ft 395 kts 355°
2026-05-05 08:32 51.98861 -0.72982 22746 ft 400 kts 355°
2026-05-05 08:32 52.01632 -0.73575 23373 ft 404 kts 347°
2026-05-05 08:33 52.04374 -0.74671 23928 ft 407 kts 343°
2026-05-05 08:33 52.07114 -0.75947 24456 ft 411 kts 341°
2026-05-05 08:33 52.09853 -0.77330 24983 ft 413 kts 340°
2026-05-05 08:33 52.12594 -0.78771 25503 ft 416 kts 340°
2026-05-05 08:34 52.15362 -0.80247 26015 ft 419 kts 340°
2026-05-05 08:34 52.18147 -0.81735 26525 ft 421 kts 340°
2026-05-05 08:34 52.20944 -0.83224 27020 ft 424 kts 340°
2026-05-05 08:34 52.23694 -0.84830 27484 ft 425 kts 334°
2026-05-05 08:35 52.26349 -0.86997 27962 ft 426 kts 329°
2026-05-05 08:35 52.28940 -0.89379 28424 ft 427 kts 327°
2026-05-05 08:35 52.31509 -0.91863 28870 ft 430 kts 326°
2026-05-05 08:35 52.34068 -0.94407 29314 ft 432 kts 326°
2026-05-05 08:36 52.36635 -0.96991 29739 ft 434 kts 326°
2026-05-05 08:36 52.39215 -0.99596 30142 ft 437 kts 326°
2026-05-05 08:36 52.41809 -1.02214 30482 ft 439 kts 327°
2026-05-05 08:36 52.44431 -1.04854 30818 ft 442 kts 327°
2026-05-05 08:37 52.47052 -1.07490 31184 ft 443 kts 327°
2026-05-05 08:37 52.49685 -1.10136 31631 ft 442 kts 327°
2026-05-05 08:37 52.52286 -1.12751 31948 ft 444 kts 328°
2026-05-05 08:37 52.54884 -1.15365 32020 ft 428 kts 328°
2026-05-05 08:38 52.57369 -1.17865 32027 ft 413 kts 328°
2026-05-05 08:38 52.62230 -1.22772 32024 ft 409 kts 328°
2026-05-05 08:39 52.67078 -1.27682 32021 ft 409 kts 328°
2026-05-05 08:39 52.71899 -1.32578 32020 ft 409 kts 328°
2026-05-05 08:40 52.76747 -1.37518 32023 ft 408 kts 328°
2026-05-05 08:40 52.81575 -1.42452 32021 ft 408 kts 329°
2026-05-05 08:41 52.86364 -1.47358 32021 ft 407 kts 329°
2026-05-05 08:41 52.91172 -1.52297 32019 ft 406 kts 329°
2026-05-05 08:42 52.95978 -1.57245 32021 ft 406 kts 329°
2026-05-05 08:42 53.00775 -1.62196 32026 ft 405 kts 329°
2026-05-05 08:43 53.05575 -1.66821 32027 ft 404 kts 337°
2026-05-05 08:43 53.10744 -1.70326 32030 ft 403 kts 340°
2026-05-05 08:44 53.16012 -1.73619 32028 ft 403 kts 340°
2026-05-05 08:44 53.21284 -1.76859 32033 ft 403 kts 340°
2026-05-05 08:45 53.26510 -1.80093 32035 ft 403 kts 340°
2026-05-05 08:45 53.31760 -1.83367 32037 ft 403 kts 339°
2026-05-05 08:46 53.37010 -1.86656 32039 ft 402 kts 339°
2026-05-05 08:46 53.42263 -1.89956 32043 ft 402 kts 339°
2026-05-05 08:47 53.47471 -1.93236 32040 ft 402 kts 339°
2026-05-05 08:47 53.52708 -1.96542 32040 ft 402 kts 339°
2026-05-05 08:48 53.57939 -1.99853 32040 ft 401 kts 338°
2026-05-05 08:48 53.63169 -2.03173 32037 ft 400 kts 338°
2026-05-05 08:49 53.68355 -2.06473 32032 ft 400 kts 338°
2026-05-05 08:49 53.73564 -2.09798 32030 ft 399 kts 338°
2026-05-05 08:50 53.78739 -2.13237 32033 ft 399 kts 337°
2026-05-05 08:50 53.83891 -2.16769 32034 ft 399 kts 336°
2026-05-05 08:51 53.89002 -2.20286 32037 ft 399 kts 336°
2026-05-05 08:51 53.94145 -2.23819 32036 ft 398 kts 336°
2026-05-05 08:52 53.99286 -2.27354 32036 ft 398 kts 336°
2026-05-05 08:52 54.04244 -2.31473 32038 ft 396 kts 330°
2026-05-05 08:53 54.09080 -2.35949 32039 ft 395 kts 329°
2026-05-05 08:53 54.13902 -2.40462 32037 ft 395 kts 329°
2026-05-05 08:54 54.18689 -2.44961 32039 ft 394 kts 329°
2026-05-05 08:54 54.23490 -2.49487 32040 ft 394 kts 328°
2026-05-05 08:55 54.28285 -2.54021 32040 ft 393 kts 328°
2026-05-05 08:55 54.33073 -2.58560 32041 ft 393 kts 328°
2026-05-05 08:56 54.37889 -2.63141 32038 ft 403 kts 328°
2026-05-05 08:56 54.40375 -2.65513 32034 ft 414 kts 328°
2026-05-05 08:56 54.42935 -2.67957 32040 ft 424 kts 328°
2026-05-05 08:57 54.48135 -2.72925 32037 ft 427 kts 328°
2026-05-05 08:57 54.53283 -2.77857 32039 ft 426 kts 328°
2026-05-05 08:58 54.58352 -2.82724 32043 ft 401 kts 328°
2026-05-05 08:58 54.63133 -2.87332 32041 ft 391 kts 327°
2026-05-05 08:59 54.67883 -2.91930 32041 ft 391 kts 327°
2026-05-05 08:59 54.71466 -2.95405 32047 ft 389 kts 327°
2026-05-05 08:59 54.73786 -2.97654 31861 ft 377 kts 327°
2026-05-05 09:00 54.76068 -2.99870 30979 ft 377 kts 327°
2026-05-05 09:00 54.78382 -3.02129 29759 ft 386 kts 327°
2026-05-05 09:00 54.80736 -3.04429 28532 ft 391 kts 327°
2026-05-05 09:00 54.83104 -3.06739 27578 ft 389 kts 327°
2026-05-05 09:01 54.85458 -3.09039 26716 ft 385 kts 327°
2026-05-05 09:01 54.87776 -3.11306 25909 ft 380 kts 327°
2026-05-05 09:01 54.90066 -3.13550 25132 ft 375 kts 327°
2026-05-05 09:01 54.92333 -3.15775 24379 ft 371 kts 327°
2026-05-05 09:02 54.94565 -3.17970 23641 ft 367 kts 327°
2026-05-05 09:02 54.96748 -3.20119 22781 ft 363 kts 327°
2026-05-05 09:02 54.98927 -3.22267 21941 ft 358 kts 327°
2026-05-05 09:02 55.01087 -3.24398 21139 ft 353 kts 327°
2026-05-05 09:03 55.03200 -3.26486 20575 ft 342 kts 327°
2026-05-05 09:03 55.05222 -3.28481 20305 ft 325 kts 327°
2026-05-05 09:03 55.07137 -3.30373 20062 ft 308 kts 327°
2026-05-05 09:03 55.08952 -3.32172 19693 ft 298 kts 327°
2026-05-05 09:04 55.10737 -3.33946 19242 ft 292 kts 326°
2026-05-05 09:04 55.12500 -3.35701 19127 ft 292 kts 326°
2026-05-05 09:04 55.14266 -3.37463 19011 ft 293 kts 327°
2026-05-05 09:04 55.15439 -3.38633 18928 ft 293 kts 327°
2026-05-05 09:05 55.17807 -3.40994 18768 ft 292 kts 327°
2026-05-05 09:05 55.18977 -3.42162 18690 ft 292 kts 326°
2026-05-05 09:05 55.20740 -3.43921 18525 ft 291 kts 327°
2026-05-05 09:05 55.22495 -3.45674 18288 ft 290 kts 326°
2026-05-05 09:06 55.24250 -3.47429 18011 ft 290 kts 326°
2026-05-05 09:06 55.25977 -3.49158 17756 ft 288 kts 327°
2026-05-05 09:06 55.27712 -3.50895 17486 ft 286 kts 327°
2026-05-05 09:06 55.29436 -3.52624 17220 ft 284 kts 327°
2026-05-05 09:07 55.31152 -3.54347 16965 ft 283 kts 327°
2026-05-05 09:07 55.32859 -3.56062 16581 ft 282 kts 327°
2026-05-05 09:07 55.34568 -3.57782 16141 ft 282 kts 327°
2026-05-05 09:07 55.36276 -3.59502 15699 ft 282 kts 327°
2026-05-05 09:08 55.37979 -3.61218 15255 ft 282 kts 327°
2026-05-05 09:08 55.39682 -3.62937 14829 ft 282 kts 327°
2026-05-05 09:08 55.41351 -3.64621 14568 ft 276 kts 327°
2026-05-05 09:08 55.43012 -3.66300 14091 ft 278 kts 327°
2026-05-05 09:09 55.44691 -3.68000 13721 ft 275 kts 328°
2026-05-05 09:09 55.46328 -3.69656 13448 ft 268 kts 328°
2026-05-05 09:09 55.47947 -3.71298 13032 ft 268 kts 327°
2026-05-05 09:09 55.49560 -3.72936 12602 ft 267 kts 328°
2026-05-05 09:10 55.51173 -3.74574 12195 ft 266 kts 328°
2026-05-05 09:10 55.52764 -3.76191 11862 ft 262 kts 328°
2026-05-05 09:10 55.54324 -3.77779 11499 ft 259 kts 328°
2026-05-05 09:10 55.55884 -3.79370 11126 ft 257 kts 328°
2026-05-05 09:11 55.57432 -3.80949 10742 ft 256 kts 328°
2026-05-05 09:11 55.58968 -3.82518 10371 ft 254 kts 328°
2026-05-05 09:11 55.60477 -3.84060 10012 ft 253 kts 328°
2026-05-05 09:11 55.61999 -3.85618 9595 ft 252 kts 329°
2026-05-05 09:12 55.63513 -3.87169 9156 ft 251 kts 329°
2026-05-05 09:12 55.65019 -3.88713 8765 ft 249 kts 329°
2026-05-05 09:12 55.66514 -3.90245 8364 ft 248 kts 329°
2026-05-05 09:12 55.68002 -3.91773 7980 ft 246 kts 329°
2026-05-05 09:13 55.69481 -3.93279 7589 ft 244 kts 331°
2026-05-05 09:13 55.71019 -3.94547 7196 ft 243 kts 336°
2026-05-05 09:13 55.72586 -3.95668 6822 ft 242 kts 338°
2026-05-05 09:13 55.74146 -3.96755 6470 ft 240 kts 338°
2026-05-05 09:14 55.75699 -3.97835 6075 ft 239 kts 338°
2026-05-05 09:14 55.77246 -3.98915 5676 ft 239 kts 339°
2026-05-05 09:14 55.78789 -3.99995 5270 ft 238 kts 339°
2026-05-05 09:14 55.80330 -4.01077 4871 ft 238 kts 339°
2026-05-05 09:15 55.81851 -4.02144 4503 ft 237 kts 339°
2026-05-05 09:15 55.83382 -4.03221 4165 ft 235 kts 339°
2026-05-05 09:15 55.84889 -4.04282 3840 ft 232 kts 340°
2026-05-05 09:15 55.86380 -4.05333 3508 ft 229 kts 339°
2026-05-05 09:16 55.87857 -4.06375 3150 ft 228 kts 339°
2026-05-05 09:16 55.89329 -4.07411 2910 ft 226 kts 339°
2026-05-05 09:16 55.90796 -4.08445 2883 ft 227 kts 339°
2026-05-05 09:16 55.92263 -4.09482 2881 ft 227 kts 339°
2026-05-05 09:17 55.93711 -4.10506 2880 ft 226 kts 339°
2026-05-05 09:17 55.95195 -4.11559 2883 ft 226 kts 340°
2026-05-05 09:17 55.96639 -4.12581 2880 ft 226 kts 340°
2026-05-05 09:17 55.98037 -4.13730 2867 ft 213 kts 328°
2026-05-05 09:18 55.99045 -4.15499 2922 ft 196 kts 305°
2026-05-05 09:18 55.99440 -4.17721 2882 ft 184 kts 270°
2026-05-05 09:18 55.99141 -4.19820 2892 ft 170 kts 250°
2026-05-05 09:18 55.98595 -4.21670 2899 ft 170 kts 240°
2026-05-05 09:19 55.97839 -4.23328 2909 ft 171 kts 229°
2026-05-05 09:19 55.97028 -4.24872 2803 ft 170 kts 229°
2026-05-05 09:19 55.96221 -4.26397 2578 ft 171 kts 229°
2026-05-05 09:19 55.95416 -4.27911 2309 ft 165 kts 229°
2026-05-05 09:20 55.94651 -4.29349 2085 ft 156 kts 229°
2026-05-05 09:20 55.93908 -4.30746 1855 ft 155 kts 229°
2026-05-05 09:20 55.93165 -4.32142 1638 ft 155 kts 229°
2026-05-05 09:20 55.92422 -4.33538 1418 ft 154 kts 229°
2026-05-05 09:21 55.91682 -4.34923 1194 ft 154 kts 230°
2026-05-05 09:21 55.90951 -4.36294 975 ft 148 kts 229°
2026-05-05 09:21 55.90259 -4.37591 763 ft 141 kts 229°
2026-05-05 09:21 55.89588 -4.38848 586 ft 139 kts 230°
2026-05-05 09:22 55.88939 -4.40064 380 ft 134 kts 229°
2026-05-05 09:22 55.88286 -4.41247 187 ft 132 kts 231°
2026-05-05 09:22 55.87660 -4.42426 65 ft 132 kts 231°
2026-05-05 09:22 55.87064 -4.43570 42 ft 110 kts 224°
2026-05-05 09:23 55.86665 -4.44306 39 ft 56 kts 225°
2026-05-05 09:23 55.86413 -4.44538 37 ft 27 kts 191°
2026-05-05 09:23 55.86362 -4.44468 36 ft 5 kts 73°
2026-05-05 09:23 55.86376 -4.44427 36 ft 3 kts 51°
2026-05-05 09:24 55.86393 -4.44391 36 ft 4 kts 51°
2026-05-05 09:24 55.86414 -4.44345 36 ft 5 kts 51°
2026-05-05 09:24 55.86451 -4.44275 36 ft 11 kts 46°
2026-05-05 09:24 55.86507 -4.44170 36 ft 12 kts 47°
2026-05-05 09:25 55.86551 -4.44059 36 ft 5 kts 90°
2026-05-05 09:25 55.86519 -4.44005 36 ft 12 kts 149°
2026-05-05 09:25 55.86480 -4.43930 36 ft 4 kts 90°
2026-05-05 09:25 55.86486 -4.43896 36 ft 6 kts 66°
2026-05-05 09:26 55.86506 -4.43826 36 ft 5 kts 62°
2026-05-05 09:26 55.86511 -4.43809 35 ft 0 kts 62°